QPF
0.02 0.02 0.03 0.03 0.03 0.04 0.07 0.06 0.06 0.05 0.03 0.03 0.03 0.03 0.05 0.06 0.08 0.11 0.12 0.10 0.06 0.03 0.03 0.02 0.01 0.01 0.01 0.02 0.03 0.04 0.04 0.05 0.11 0.11 0.07 0.07 0.08 0.07
0.02 0.02 0.02 0.02 0.02 0.04 0.04 0.05 0.06 0.06 0.03 0.03 0.03 0.03 0.03 0.04 0.07 0.09 0.10 0.12 0.09 0.05 0.03 0.03 0.03 0.02 0.02 0.02 0.03 0.03 0.02 0.03 0.05 0.09 0.05 0.05 0.06 0.06
0.02 0.01 0.01 0.02 0.01 0.02 0.03 0.02 0.04 0.07 0.06 0.05 0.05 0.04 0.04 0.03 0.03 0.04 0.05 0.08 0.10 0.10 0.06 0.04 0.03 0.02 0.02 0.03 0.04 0.04 0.04 0.03 0.03 0.03 0.02 0.03 0.05 0.05
0.01 0.01 0.01 0.01 0.01 0.01 0.02 0.02 0.03 0.05 0.05 0.04 0.03 0.05 0.04 0.03 0.03 0.03 0.04 0.06 0.08 0.10 0.10 0.07 0.05 0.03 0.03 0.03 0.04 0.05 0.06 0.04 0.03 0.04 0.04 0.03 0.04 0.04
0.01 0.01 0.01 0.01 0.02 0.02 0.02 0.02 0.03 0.03 0.04 0.03 0.02 0.04 0.06 0.05 0.05 0.04 0.04 0.06 0.07 0.08 0.09 0.09 0.07 0.05 0.04 0.03 0.04 0.05 0.05 0.05 0.05 0.04 0.04 0.05 0.06 0.05
0.02 0.02 0.02 0.01 0.02 0.02 0.02 0.03 0.04 0.04 0.05 0.05 0.03 0.03 0.05 0.06 0.05 0.04 0.05 0.06 0.08 0.08 0.09 0.09 0.08 0.07 0.06 0.05 0.04 0.04 0.04 0.04 0.03 0.04 0.04 0.04 0.06 0.08
0.01 0.01 0.01 0.01 0.01 0.01 0.02 0.02 0.05 0.05 0.04 0.04 0.03 0.04 0.04 0.04 0.04 0.04 0.05 0.05 0.05 0.07 0.08 0.09 0.09 0.08 0.07 0.06 0.05 0.04 0.04 0.03 0.03 0.03 0.03 0.04 0.05 0.07
0.01 0.01 0.01 0.01 0.01 0.02 0.02 0.03 0.03 0.04 0.03 0.03 0.03 0.03 0.03 0.03 0.04 0.03 0.03 0.04 0.06 0.06 0.07 0.06 0.06 0.06 0.04 0.03 0.03 0.04 0.03 0.02 0.02 0.02 0.03 0.04 0.05 0.08
0.01 0.01 0.01 0.00 0.01 0.02 0.02 0.02 0.01 0.02 0.03 0.03 0.02 0.01 0.01 0.02 0.03 0.03 0.03 0.04 0.05 0.04 0.04 0.04 0.03 0.03 0.03 0.03 0.03 0.03 0.04 0.04 0.03 0.03 0.04 0.05 0.05 0.05
0.01 0.00 0.00 0.00 0.01 0.01 0.01 0.01 0.01 0.01 0.01 0.02 0.01 0.01 0.01 0.01 0.02 0.03 0.03 0.04 0.05 0.06 0.05 0.03 0.03 0.03 0.03 0.03 0.03 0.03 0.03 0.03 0.03 0.04 0.04 0.05 0.05 0.05
0.00 0.00 0.00 0.00 0.01 0.01 0.01 0.00 0.01 0.01 0.01 0.02 0.02 0.02 0.02 0.02 0.02 0.04 0.04 0.05 0.07 0.08 0.06 0.04 0.02 0.01 0.01 0.01 0.01 0.02 0.02 0.02 0.02 0.03 0.03 0.03 0.04 0.05
0.00 0.00 0.00 0.00 0.01 0.01 0.00 0.00 0.00 0.01 0.01 0.01 0.01 0.01 0.02 0.03 0.02 0.03 0.04 0.04 0.05 0.06 0.05 0.04 0.02 0.01 0.01 0.01 0.00 0.00 0.01 0.02 0.02 0.02 0.01 0.02 0.03 0.04
0.00 0.00 0.00 0.00 0.01 0.01 0.00 0.00 0.00 0.01 0.01 0.01 0.02 0.02 0.02 0.03 0.03 0.03 0.04 0.03 0.03 0.05 0.05 0.04 0.03 0.02 0.01 0.01 0.01 0.01 0.01 0.01 0.01 0.02 0.02 0.02 0.03 0.03
0.00 0.00 0.00 0.00 0.00 0.00 0.00 0.00 0.00 0.01 0.02 0.02 0.02 0.02 0.02 0.03 0.05 0.04 0.04 0.04 0.02 0.03 0.05 0.06 0.04 0.04 0.02 0.01 0.01 0.00 0.01 0.01 0.01 0.02 0.02 0.02 0.03 0.03
0.01 0.00 0.00 0.00 0.00 0.00 0.00 0.01 0.01 0.01 0.02 0.03 0.04 0.03 0.03 0.04 0.06 0.08 0.08 0.06 0.04 0.04 0.05 0.06 0.07 0.06 0.04 0.02 0.01 0.01 0.01 0.02 0.01 0.02 0.02 0.02 0.02 0.03
0.01 0.01 0.01 0.00 0.00 0.00 0.01 0.01 0.01 0.02 0.02 0.04 0.06 0.07 0.06 0.05 0.07 0.07 0.09 0.08 0.08 0.08 0.06 0.05 0.05 0.06 0.05 0.03 0.02 0.01 0.01 0.02 0.02 0.01 0.01 0.02 0.02 0.03
0.04 0.03 0.01 0.01 0.01 0.01 0.01 0.01 0.01 0.02 0.02 0.05 0.06 0.07 0.08 0.09 0.10 0.08 0.06 0.06 0.07 0.08 0.06 0.04 0.03 0.03 0.04 0.04 0.04 0.02 0.01 0.01 0.01 0.02 0.02 0.01 0.01 0.02
0.05 0.04 0.03 0.03 0.02 0.03 0.04 0.02 0.01 0.01 0.02 0.03 0.04 0.05 0.06 0.07 0.07 0.06 0.05 0.05 0.05 0.05 0.04 0.03 0.02 0.03 0.05 0.08 0.06 0.03 0.02 0.01 0.01 0.01 0.02 0.02 0.02 0.01
0.05 0.05 0.05 0.04 0.04 0.05 0.05 0.04 0.03 0.01 0.02 0.02 0.03 0.04 0.04 0.03 0.04 0.04 0.04 0.03 0.02 0.02 0.02 0.03 0.03 0.05 0.07 0.08 0.06 0.03 0.02 0.02 0.01 0.01 0.01 0.02 0.02 0.02
0.04 0.05 0.05 0.05 0.06 0.07 0.07 0.08 0.05 0.03 0.03 0.04 0.04 0.04 0.03 0.03 0.03 0.03 0.02 0.02 0.02 0.02 0.01 0.03 0.05 0.08 0.09 0.07 0.04 0.02 0.02 0.02 0.02 0.02 0.01 0.01 0.02 0.02
0.04 0.04 0.04 0.05 0.05 0.06 0.07 0.07 0.05 0.04 0.04 0.05 0.05 0.04 0.04 0.03 0.03 0.02 0.02 0.02 0.02 0.01 0.01 0.03 0.05 0.08 0.08 0.06 0.03 0.02 0.02 0.02 0.01 0.01 0.01 0.01 0.01 0.01
0.04 0.04 0.05 0.06 0.05 0.05 0.05 0.06 0.06 0.06 0.07 0.06 0.05 0.04 0.04 0.03 0.03 0.02 0.02 0.02 0.01 0.01 0.01 0.02 0.03 0.03 0.02 0.03 0.04 0.03 0.02 0.02 0.02 0.02 0.02 0.01 0.02 0.02
0.05 0.05 0.06 0.06 0.05 0.05 0.05 0.06 0.06 0.06 0.06 0.06 0.06 0.05 0.05 0.04 0.03 0.02 0.02 0.01 0.01 0.01 0.01 0.01 0.02 0.02 0.02 0.02 0.02 0.02 0.02 0.02 0.02 0.02 0.01 0.01 0.01 0.01
MSLP
1015.99 1016.22 1016.56 1017.00 1017.51 1018.06 1018.62 1019.15 1019.63 1020.03 1020.34 1020.55 1020.66 1020.67 1020.61 1020.49 1020.35 1020.19 1020.05 1019.96 1019.91 1019.91 1019.95 1020.01 1020.05 1020.06 1020.02 1019.90 1019.72 1019.48 1019.21 1018.93 1018.66 1018.41 1018.19 1017.99 1017.82 1017.65
1016.37 1016.56 1016.82 1017.16 1017.58 1018.06 1018.56 1019.07 1019.55 1019.98 1020.34 1020.61 1020.77 1020.84 1020.81 1020.71 1020.55 1020.38 1020.22 1020.09 1020.03 1020.03 1020.09 1020.17 1020.26 1020.32 1020.33 1020.26 1020.12 1019.91 1019.65 1019.37 1019.10 1018.85 1018.64 1018.48 1018.34 1018.22
1016.77 1016.92 1017.12 1017.39 1017.73 1018.13 1018.58 1019.06 1019.54 1020.00 1020.41 1020.73 1020.96 1021.08 1021.09 1021.01 1020.85 1020.65 1020.45 1020.29 1020.19 1020.16 1020.20 1020.29 1020.40 1020.50 1020.55 1020.52 1020.42 1020.23 1019.99 1019.72 1019.45 1019.20 1018.99 1018.82 1018.70 1018.60
1017.13 1017.27 1017.43 1017.65 1017.93 1018.27 1018.68 1019.13 1019.62 1020.10 1020.55 1020.94 1021.23 1021.40 1021.45 1021.39 1021.23 1021.01 1020.77 1020.56 1020.40 1020.32 1020.32 1020.39 1020.49 1020.60 1020.67 1020.68 1020.60 1020.45 1020.23 1019.97 1019.69 1019.43 1019.21 1019.04 1018.91 1018.81
1017.43 1017.58 1017.74 1017.93 1018.18 1018.48 1018.86 1019.29 1019.77 1020.27 1020.76 1021.19 1021.53 1021.76 1021.85 1021.81 1021.66 1021.42 1021.15 1020.88 1020.67 1020.53 1020.47 1020.49 1020.56 1020.66 1020.73 1020.75 1020.70 1020.56 1020.36 1020.10 1019.83 1019.56 1019.33 1019.14 1019.00 1018.89
1017.66 1017.85 1018.03 1018.22 1018.45 1018.74 1019.09 1019.50 1019.97 1020.47 1020.97 1021.43 1021.81 1022.08 1022.21 1022.20 1022.07 1021.83 1021.54 1021.24 1020.97 1020.77 1020.65 1020.62 1020.64 1020.70 1020.76 1020.77 1020.72 1020.60 1020.41 1020.17 1019.89 1019.62 1019.38 1019.17 1019.01 1018.89
1017.83 1018.07 1018.28 1018.50 1018.73 1019.01 1019.33 1019.71 1020.15 1020.63 1021.12 1021.59 1021.99 1022.28 1022.45 1022.49 1022.38 1022.17 1021.89 1021.58 1021.29 1021.04 1020.87 1020.78 1020.76 1020.77 1020.79 1020.79 1020.73 1020.61 1020.43 1020.19 1019.93 1019.65 1019.40 1019.17 1019.00 1018.86
1017.92 1018.22 1018.49 1018.74 1018.99 1019.25 1019.55 1019.89 1020.28 1020.71 1021.17 1021.61 1022.00 1022.32 1022.52 1022.60 1022.55 1022.39 1022.15 1021.87 1021.58 1021.33 1021.13 1021.00 1020.93 1020.90 1020.88 1020.85 1020.78 1020.65 1020.47 1020.24 1019.98 1019.70 1019.44 1019.20 1019.01 1018.85
1017.94 1018.31 1018.64 1018.93 1019.19 1019.45 1019.71 1020.00 1020.32 1020.68 1021.07 1021.46 1021.84 1022.15 1022.39 1022.52 1022.55 1022.47 1022.30 1022.08 1021.84 1021.61 1021.41 1021.27 1021.16 1021.09 1021.04 1020.98 1020.89 1020.75 1020.57 1020.34 1020.08 1019.81 1019.55 1019.30 1019.09 1018.91
1017.87 1018.32 1018.71 1019.04 1019.32 1019.57 1019.79 1020.02 1020.27 1020.54 1020.85 1021.18 1021.51 1021.82 1022.08 1022.27 1022.38 1022.40 1022.34 1022.21 1022.05 1021.88 1021.71 1021.57 1021.46 1021.36 1021.28 1021.19 1021.08 1020.94 1020.75 1020.53 1020.28 1020.02 1019.75 1019.50 1019.27 1019.08
1017.70 1018.22 1018.68 1019.06 1019.37 1019.61 1019.80 1019.97 1020.13 1020.32 1020.54 1020.80 1021.08 1021.38 1021.67 1021.91 1022.11 1022.23 1022.29 1022.28 1022.22 1022.12 1022.01 1021.90 1021.79 1021.69 1021.59 1021.48 1021.36 1021.21 1021.02 1020.81 1020.57 1020.32 1020.06 1019.80 1019.57 1019.35
1017.43 1018.02 1018.55 1018.98 1019.32 1019.56 1019.73 1019.85 1019.96 1020.07 1020.21 1020.40 1020.64 1020.93 1021.23 1021.53 1021.80 1022.03 1022.20 1022.31 1022.35 1022.34 1022.30 1022.22 1022.13 1022.04 1021.93 1021.81 1021.68 1021.53 1021.36 1021.16 1020.94 1020.70 1020.45 1020.20 1019.95 1019.71
1017.06 1017.73 1018.32 1018.80 1019.18 1019.44 1019.61 1019.70 1019.76 1019.82 1019.90 1020.05 1020.25 1020.52 1020.84 1021.19 1021.53 1021.85 1022.11 1022.32 1022.46 1022.53 1022.54 1022.51 1022.45 1022.36 1022.26 1022.15 1022.02 1021.88 1021.72 1021.54 1021.34 1021.12 1020.89 1020.64 1020.38 1020.13
1016.61 1017.34 1017.99 1018.53 1018.95 1019.25 1019.43 1019.52 1019.56 1019.59 1019.65 1019.77 1019.95 1020.22 1020.55 1020.93 1021.32 1021.70 1022.04 1022.33 1022.53 1022.67 1022.74 1022.74 1022.70 1022.63 1022.54 1022.44 1022.32 1022.20 1022.06 1021.91 1021.74 1021.54 1021.32 1021.08 1020.82 1020.55
1016.08 1016.86 1017.57 1018.17 1018.64 1018.97 1019.18 1019.30 1019.36 1019.39 1019.45 1019.56 1019.75 1020.01 1020.36 1020.76 1021.18 1021.60 1021.99 1022.32 1022.58 1022.76 1022.86 1022.89 1022.87 1022.82 1022.74 1022.65 1022.55 1022.45 1022.34 1022.21 1022.07 1021.90 1021.70 1021.47 1021.21 1020.92
1015.51 1016.33 1017.07 1017.71 1018.23 1018.61 1018.86 1019.02 1019.11 1019.17 1019.26 1019.39 1019.59 1019.87 1020.23 1020.64 1021.09 1021.53 1021.94 1022.29 1022.57 1022.77 1022.89 1022.94 1022.94 1022.90 1022.83 1022.76 1022.68 1022.60 1022.52 1022.42 1022.31 1022.16 1021.98 1021.76 1021.49 1021.19
1014.89 1015.73 1016.50 1017.16 1017.71 1018.13 1018.43 1018.64 1018.78 1018.89 1019.02 1019.19 1019.43 1019.73 1020.11 1020.54 1020.99 1021.44 1021.85 1022.21 1022.50 1022.71 1022.83 1022.90 1022.90 1022.88 1022.83 1022.77 1022.71 1022.65 1022.59 1022.51 1022.42 1022.28 1022.11 1021.89 1021.62 1021.30
1014.24 1015.08 1015.85 1016.52 1017.09 1017.54 1017.88 1018.13 1018.33 1018.50 1018.69 1018.91 1019.19 1019.54 1019.94 1020.38 1020.85 1021.30 1021.71 1022.07 1022.35 1022.56 1022.69 1022.76 1022.77 1022.76 1022.72 1022.67 1022.63 1022.59 1022.53 1022.47 1022.38 1022.25 1022.07 1021.85 1021.56 1021.23
1013.55 1014.37 1015.12 1015.79 1016.36 1016.82 1017.19 1017.49 1017.74 1017.98 1018.22 1018.51 1018.85 1019.24 1019.68 1020.15 1020.63 1021.09 1021.50 1021.86 1022.14 1022.35 1022.48 1022.55 1022.57 1022.56 1022.53 1022.49 1022.46 1022.41 1022.36 1022.29 1022.19 1022.06 1021.87 1021.62 1021.32 1020.97
1012.82 1013.61 1014.33 1014.98 1015.54 1016.00 1016.39 1016.72 1017.02 1017.32 1017.63 1017.98 1018.39 1018.84 1019.32 1019.83 1020.33 1020.80 1021.23 1021.59 1021.87 1022.08 1022.22 1022.29 1022.32 1022.31 1022.28 1022.24 1022.20 1022.15 1022.08 1022.00 1021.88 1021.72 1021.51 1021.24 1020.91 1020.54
1012.06 1012.80 1013.49 1014.10 1014.64 1015.10 1015.50 1015.86 1016.20 1016.55 1016.93 1017.35 1017.82 1018.33 1018.87 1019.42 1019.95 1020.45 1020.90 1021.27 1021.56 1021.77 1021.91 1021.99 1022.02 1022.01 1021.98 1021.93 1021.88 1021.81 1021.72 1021.60 1021.46 1021.27 1021.02 1020.72 1020.38 1019.98
1011.26 1011.96 1012.61 1013.19 1013.70 1014.15 1014.55 1014.93 1015.32 1015.72 1016.16 1016.65 1017.19 1017.76 1018.36 1018.96 1019.53 1020.06 1020.53 1020.92 1021.22 1021.44 1021.59 1021.67 1021.69 1021.68 1021.64 1021.58 1021.50 1021.40 1021.29 1021.14 1020.96 1020.73 1020.46 1020.13 1019.76 1019.34
1010.45 1011.11 1011.72 1012.27 1012.75 1013.19 1013.60 1014.00 1014.42 1014.87 1015.37 1015.93 1016.53 1017.16 1017.81 1018.46 1019.08 1019.64 1020.13 1020.54 1020.86 1021.09 1021.24 1021.32 1021.35 1021.33 1021.27 1021.19 1021.09 1020.97 1020.82 1020.64 1020.43 1020.17 1019.87 1019.51 1019.12 1018.69
Thickness
5742 5740 5738 5736 5735 5733 5731 5727 5719 5713 5714 5719 5720 5723 5723 5722 5721 5719 5718 5717 5715 5713 5712 5710 5709 5708 5706 5705 5705 5704 5703 5703 5704 5704 5705 5705 5705 5705
5737 5735 5733 5732 5731 5729 5728 5725 5722 5715 5711 5714 5715 5717 5717 5717 5716 5715 5714 5713 5711 5709 5708 5706 5704 5703 5702 5701 5701 5700 5699 5699 5699 5700 5700 5701 5701 5702
5733 5731 5729 5728 5725 5724 5723 5721 5718 5714 5709 5710 5711 5711 5711 5711 5710 5710 5709 5708 5707 5705 5703 5701 5699 5698 5697 5696 5696 5695 5695 5694 5695 5695 5696 5696 5697 5697
5727 5725 5723 5723 5720 5719 5717 5715 5713 5711 5707 5703 5703 5703 5703 5704 5703 5702 5702 5702 5700 5699 5697 5696 5694 5693 5692 5691 5690 5690 5690 5689 5689 5690 5690 5691 5691 5692
5722 5720 5718 5716 5713 5712 5710 5708 5707 5707 5703 5699 5697 5697 5697 5697 5695 5695 5695 5694 5694 5693 5692 5690 5688 5687 5687 5686 5686 5685 5685 5684 5684 5684 5684 5685 5686 5686
5718 5715 5713 5711 5708 5706 5705 5702 5701 5698 5696 5693 5690 5689 5689 5689 5687 5686 5685 5685 5686 5687 5685 5684 5683 5682 5681 5681 5681 5680 5679 5678 5678 5678 5678 5678 5679 5680
5711 5709 5708 5706 5705 5703 5701 5697 5694 5691 5688 5685 5683 5681 5680 5679 5678 5678 5677 5677 5678 5679 5678 5677 5676 5676 5675 5675 5674 5674 5673 5672 5672 5672 5672 5672 5673 5673
5704 5703 5702 5700 5699 5697 5696 5693 5690 5686 5682 5679 5676 5674 5673 5673 5673 5673 5670 5668 5668 5671 5670 5669 5670 5669 5669 5668 5667 5667 5666 5666 5665 5665 5665 5665 5665 5666
5699 5697 5696 5695 5692 5690 5689 5687 5685 5683 5680 5675 5672 5670 5669 5669 5667 5666 5665 5663 5662 5664 5663 5662 5662 5661 5663 5662 5661 5660 5660 5659 5659 5658 5658 5658 5658 5658
5694 5692 5689 5687 5686 5684 5681 5679 5677 5676 5674 5672 5670 5669 5668 5666 5664 5663 5660 5659 5658 5658 5658 5654 5655 5655 5657 5656 5655 5654 5653 5652 5651 5651 5651 5651 5650 5650
5688 5686 5684 5681 5680 5678 5675 5672 5670 5669 5669 5668 5666 5665 5664 5662 5660 5657 5653 5650 5648 5649 5650 5648 5647 5647 5648 5649 5649 5648 5647 5646 5645 5644 5643 5643 5643 5642
5681 5680 5678 5676 5675 5672 5668 5665 5662 5662 5661 5661 5660 5659 5658 5656 5655 5652 5649 5644 5641 5641 5643 5641 5640 5639 5638 5640 5641 5640 5639 5638 5638 5637 5636 5635 5634 5633
5675 5673 5672 5671 5669 5666 5664 5661 5659 5657 5655 5653 5652 5651 5650 5649 5648 5646 5644 5641 5638 5636 5638 5636 5634 5632 5630 5630 5631 5632 5631 5630 5630 5629 5628 5628 5627 5626
5671 5669 5668 5666 5664 5661 5658 5657 5655 5652 5649 5647 5646 5644 5643 5642 5642 5640 5639 5637 5636 5635 5634 5632 5629 5627 5624 5622 5621 5623 5623 5623 5622 5621 5621 5620 5619 5619
5668 5666 5663 5661 5658 5655 5653 5652 5649 5645 5643 5641 5640 5639 5638 5637 5635 5633 5632 5631 5629 5628 5628 5626 5625 5622 5619 5617 5615 5615 5614 5615 5615 5613 5613 5612 5611 5611
5660 5659 5656 5654 5651 5649 5647 5645 5642 5640 5638 5636 5634 5633 5632 5629 5627 5626 5623 5622 5619 5619 5620 5620 5619 5617 5613 5612 5610 5608 5608 5607 5607 5607 5605 5605 5604 5604
5652 5649 5646 5644 5642 5641 5639 5638 5636 5634 5631 5630 5628 5626 5624 5622 5619 5618 5615 5613 5610 5609 5609 5610 5610 5609 5608 5606 5604 5603 5602 5601 5600 5600 5598 5597 5598 5598
5645 5641 5639 5637 5635 5634 5632 5631 5629 5628 5626 5624 5622 5619 5617 5614 5612 5610 5608 5605 5603 5602 5602 5601 5600 5599 5598 5598 5599 5597 5595 5594 5593 5593 5591 5590 5590 5591
5638 5636 5634 5632 5630 5628 5627 5625 5624 5623 5621 5618 5616 5613 5610 5607 5605 5602 5600 5598 5596 5595 5595 5594 5591 5589 5587 5587 5590 5592 5589 5587 5585 5584 5584 5583 5583 5585
5633 5631 5629 5627 5626 5623 5622 5620 5619 5617 5614 5612 5610 5607 5604 5601 5599 5596 5594 5592 5590 5588 5587 5586 5585 5583 5582 5581 5581 5583 5584 5581 5579 5577 5576 5576 5575 5576
5629 5626 5625 5623 5622 5619 5617 5616 5613 5611 5608 5606 5603 5601 5598 5595 5593 5591 5589 5586 5584 5582 5580 5581 5581 5581 5579 5577 5574 5575 5576 5576 5575 5572 5570 5568 5566 5566
5624 5621 5620 5618 5617 5615 5612 5610 5607 5605 5602 5599 5597 5594 5592 5590 5587 5585 5582 5580 5578 5577 5576 5576 5576 5574 5572 5570 5569 5568 5568 5568 5568 5567 5566 5566 5562 5560
5620 5617 5615 5613 5612 5609 5606 5604 5601 5599 5596 5593 5591 5588 5586 5583 5581 5580 5578 5576 5574 5572 5570 5569 5568 5567 5566 5565 5563 5562 5561 5560 5559 5558 5559 5560 5560 5560